Simultaneous Nadir Overpasses (SNOs) Predictions

Prediction of SNOs between NOAA-20 and PACE Satellite Orbit:

Table of predicted SNOs for the next 14.0 days since TLE Epoch: 9/28/2024
Index Date (NOAA-20) Time (NOAA-20) Lat,Lon (NOAA-20) SZA (NOAA-20 ) Date (PACE) Time (PACE) Lat,Lon (PACE) SZA (PACE ) Distance(km) Time Diff (sec)
1 09/29/2024 06:02:38 79.85, 51.89 84.26 09/29/2024 06:02:41 79.85, 51.94 84.25 1.16 3
2 10/01/2024 09:38:24 -79.90, 177.48 94.84 10/01/2024 09:38:52 -79.90, 177.49 94.86 0.15 28
3 10/01/2024 10:29:01 79.64, -12.84 84.73 10/01/2024 10:27:54 79.65, -12.92 84.76 1.72 67
4 10/03/2024 13:14:09 79.91, -56.54 85.99 10/03/2024 13:15:01 79.92, -56.66 85.98 2.47 52
5 10/03/2024 14:04:47 -79.70, 112.70 94.37 10/03/2024 14:04:04 -79.71, 112.62 94.34 1.65 43
6 10/05/2024 16:50:36 -80.94, 55.41 90.90 10/05/2024 16:51:49 -81.17, 56.21 90.87 29.47 73
7 10/05/2024 17:40:35 79.81,-122.23 86.63 10/05/2024 17:40:14 79.80,-122.12 86.62 2.34 21
8 10/07/2024 21:16:19 -79.82, 3.74 92.55 10/07/2024 21:16:21 -79.83, 3.65 92.54 1.84 2
9 10/10/2024 00:52:06 79.91, 128.95 88.41 10/10/2024 00:52:28 79.90, 129.08 88.38 2.86 22



Historial Predications of SNOs between NOAA-20 and PACE
